Weather History for KCMA - January, 2014

Change the Weather History Date:

Friday, January 17, 2014

  Actual Average Record
Temperature  
Mean Temperature 68 °F 55 °F  
Max Temperature 87 °F 66 °F 87 °F (1976)
Min Temperature 49 °F 44 °F 32 °F (2007)
Degree Days  
Heating Degree Days 0 11  
Month to date heating degree days 113 187  
Since 1 July heating degree days 624 868  
Cooling Degree Days 3 0  
Month to date cooling degree days 27 0  
Year to date cooling degree days 27 0  
Growing Degree Days 18 (Base 50)    
Moisture  
Dew Point 15 °F    
Average Humidity 21    
Maximum Humidity 38    
Minimum Humidity 4    
Precipitation  
Precipitation 0.00 in 0.12 in 2.56 in (1973)
Month to date precipitation 0.00 2.31  
Year to date precipitation 0.00 2.31  
Since 1 July precipitation 0.82 6.55  
Sea Level Pressure  
Sea Level Pressure 30.10 in    
Wind  
Wind Speed 10 mph (ENE)    
Max Wind Speed 22 mph    
Max Gust Speed 26 mph    
Visibility 10 miles    
Events      
T = Trace of Precipitation, MM = Missing Value Source: NWS Daily Summary

Daily Weather History Graph

Daily Weather History Graph

Search for Another Location

Airport or City:

Trip Planner

Search our weather history database for the weather conditions in past years. The results will help you decide how hot, cold, wet, or windy it might be!

Date:

Astronomy

Jan. 17, 2014 Rise Set
Actual Time 7:01 AM PST 5:11 PM PST
Civil Twilight 6:34 AM PST 5:38 PM PST
Nautical Twilight 6:03 AM PST 6:09 PM PST
Astronomical Twilight 5:33 AM PST 6:39 PM PST
Moon 6:56 PM PST (1/17) 7:38 AM PST (1/17)
Length of Visible Light 11h 04m
Length of Day
10h 10m
Full, 98% of the Moon is Illuminated
Jan 17
Full
Jan 23
Last Quarter
Jan 30
New
Feb 6
First Quarter
Feb 14
Full

Hourly Weather History & Observations

Time (PST) Temp. Dew Point Humidity Pressure Visibility Wind Dir Wind Speed Gust Speed Precip Events Conditions
12:55 AM 72.0 °F 1.9 °F 6% 30.08 in 10.0 mi ENE 18.4 mph - N/A   Clear
1:55 AM 72.0 °F 3.0 °F 7% 30.10 in 10.0 mi East 16.1 mph - N/A   Clear
2:55 AM 70.0 °F 3.9 °F 7% 30.10 in 10.0 mi East 16.1 mph - N/A   Clear
3:55 AM 71.1 °F 3.9 °F 7% 30.10 in 10.0 mi East 15.0 mph - N/A   Clear
4:55 AM 70.0 °F 3.0 °F 7% 30.09 in 10.0 mi East 17.3 mph - N/A   Clear
5:55 AM 68.0 °F 6.1 °F 9% 30.11 in 10.0 mi East 13.8 mph - N/A   Clear
6:55 AM 66.9 °F 7.0 °F 10% 30.13 in 10.0 mi East 16.1 mph - N/A   Clear
7:55 AM 66.0 °F 10.0 °F 11% 30.14 in 10.0 mi ENE 6.9 mph - N/A   Clear
8:55 AM 75.0 °F 7.0 °F 7% 30.14 in 10.0 mi East 15.0 mph - N/A   Clear
9:55 AM 80.1 °F 8.1 °F 6% 30.14 in 10.0 mi ENE 16.1 mph - N/A   Clear
10:55 AM 82.9 °F 7.0 °F 6% 30.13 in 10.0 mi ENE 19.6 mph - N/A   Clear
11:55 AM 84.9 °F 6.1 °F 5% 30.10 in 10.0 mi ENE 12.7 mph - N/A   Clear
12:55 PM 86.0 °F 5.0 °F 5% 30.07 in 10.0 mi NE 11.5 mph - N/A   Clear
1:55 PM 82.0 °F 19.0 °F 10% 30.06 in 10.0 mi SW 11.5 mph - N/A   Clear
2:55 PM 80.1 °F 23.0 °F 12% 30.06 in 10.0 mi WSW 8.1 mph - N/A   Clear
3:55 PM 77.0 °F 17.1 °F 10% 30.07 in 10.0 mi West 9.2 mph - N/A   Clear
4:55 PM 69.1 °F 39.0 °F 33% 30.09 in 10.0 mi SSE 5.8 mph - N/A   Clear
5:55 PM 64.0 °F 32.0 °F 30% 30.09 in 10.0 mi NE 5.8 mph - N/A   Clear
6:55 PM 62.1 °F 30.9 °F 31% 30.09 in 10.0 mi NE 3.5 mph - N/A   Clear
7:55 PM 59.0 °F 30.0 °F 33% 30.09 in 10.0 mi Calm Calm - N/A   Clear
8:55 PM 53.1 °F 26.1 °F 35% 30.09 in 10.0 mi Calm Calm - N/A   Clear
9:55 PM 51.1 °F 27.0 °F 39% 30.09 in 10.0 mi Calm Calm - N/A   Clear
10:55 PM 54.0 °F 21.9 °F 29% 30.09 in 10.0 mi NNE 3.5 mph - N/A   Clear
11:55 PM 53.1 °F 19.0 °F 26% 30.08 in 10.0 mi Calm Calm - N/A   Clear